Regional Weather Roundup
Issued by NWS

Home | Current Version | Previous Version | Graphics & Text | Print | Product List | Glossary On
Versions: 1 2 3 4 5 6 7 8 9 10 11 12 13 14 15 16 17 18 19 20 21 22 23 24 25 26 27 28 29 30 31 32 33 34 35 36 37 38 39 40 41 42 43 44 45 46 47 48 49 50
000
ASUS43 KOAX 291910
RWRNE

WEATHER ROUNDUP FOR NEBRASKA
NATIONAL WEATHER SERVICE OMAHA NE
200 PM CDT TUE JUL 29 2014

NOTES: SATELLITE DATA IS BEING USED TO AUGMENT CLOUD COVER ABOVE
       12000 FEET.
       "FAIR" INDICATES FEW OR NO CLOUDS BELOW 12,000 FEET WITH NO
       SIGNIFICANT WEATHER AND/OR OBSTRUCTIONS TO VISIBILITY.

  * THESE STATIONS DO NOT REPORT WEATHER SUCH AS RAIN...SNOW OR FOG.

NEZ001>004-019>022-054>056-292000-
NEBRASKA PANHANDLE

CITY           SKY/WX    TMP DP  RH WIND       PRES   REMARKS
SCOTTSBLUFF    MOSUNNY   76  61  59 S7        30.22F
ALLIANCE       SUNNY     81  57  43 SE14G21   30.22F
CHADRON        CLOUDY    71  59  65 NE14      30.25R
KIMBALL        MOSUNNY   79  55  43 E12       30.22F
SIDNEY         MOSUNNY   81  57  43 SE10G20   30.22F
$$

NEZ057>060-069>072-079>082-292000-
SOUTHWEST NEBRASKA

CITY           SKY/WX    TMP DP  RH WIND       PRES   REMARKS
NORTH PLATTE   PTSUNNY   77  59  53 VRB3      30.21F
IMPERIAL       MOSUNNY   80  59  48 E10       30.19F
LEXINGTON      MOSUNNY   77  58  51 S10       30.21S
MCCOOK         MOSUNNY   82  59  45 E12G20    30.17F
OGALLALA       MOSUNNY   77  60  54 SE10G17   30.20F
$$

NEZ005>010-023>029-035>040-094-292000-
NORTH CENTRAL NEBRASKA

CITY           SKY/WX    TMP DP  RH WIND       PRES   REMARKS
VALENTINE      CLOUDY    76  52  43 CALM      30.21F
AINSWORTH      CLOUDY    76  52  43 CALM      30.22S
BROKEN BOW     PTSUNNY   76  59  55 VRB6      30.21F
O`NEILL        PTSUNNY   75  49  39 NW3       30.22F
ORD            PTSUNNY   75  57  53 SE3       30.20F
THEDFORD       CLOUDY    76  59  56 SE5       30.23S
$$

NEZ041-046>049-061>064-073>077-083>087-292000-
SOUTH CENTRAL NEBRASKA

CITY           SKY/WX    TMP DP  RH WIND       PRES   REMARKS
GRAND ISLAND   PTSUNNY   76  54  46 VRB3      30.22F
AURORA         PTSUNNY   77  56  49 CALM      30.21S
HASTINGS       PTSUNNY   75  52  44 CALM      30.21F
HEBRON         PTSUNNY   76  53  45 NE5       30.20F
HOLDREGE       SUNNY     78  55  45 SE8       30.20F
KEARNEY *      PTSUNNY   77  55  47 E6        30.21F
YORK           PTSUNNY   75  57  53 N5        30.21F
$$

NEZ011>018-030>034-042>045-292000-
NORTHEAST NEBRASKA

CITY           SKY/WX    TMP DP  RH WIND       PRES   REMARKS
NORFOLK        MOSUNNY   78  52  40 N9        30.20F
ALBION         PTSUNNY   73  53  47 CALM      30.21F
BLAIR          MOSUNNY   74  52  45 N3        30.20S
COLUMBUS *     PTSUNNY   75  54  46 N3        30.20F
FREMONT        MOSUNNY   78  54  43 N8        30.20S
TEKAMAH        PTSUNNY   76  54  46 N9        30.19F
WAYNE          MOSUNNY   74  55  50 NW6       30.21F
$$

NEZ050>053-065>068-078-088>093-292000-
SOUTHEAST NEBRASKA

CITY           SKY/WX    TMP DP  RH WIND       PRES   REMARKS
LINCOLN        MOSUNNY   82  51  34 NW9       30.19F
OMAHA EPPLEY   PTSUNNY   78  51  38 N13       30.18F
BEATRICE       MOSUNNY   77  57  49 NW7       30.19F
FALLS CITY     MOSUNNY   80  56  43 VRB5      30.16F
NEBRASKA CITY  MOSUNNY   77  53  42 NE3       30.18F
PLATTSMOUTH    PTSUNNY   78  53  41 N7        30.18F
$$

NEZ044-045-051>053-067-292000-
OMAHA AREA

CITY           SKY/WX    TMP DP  RH WIND       PRES   REMARKS
OMAHA EPPLEY   PTSUNNY   78  51  38 N13       30.18F
BLAIR          MOSUNNY   74  52  45 N3        30.20S
FREMONT        MOSUNNY   78  54  43 N8        30.20S
MILLARD        MOSUNNY   77  56  48 W7        30.18F
OFFUTT AFB     MOSUNNY   77  56  49 VRB5      30.18F
PLATTSMOUTH    PTSUNNY   78  53  41 N7        30.18F
WAHOO          MOCLDY    77  53  44 N6        30.19F
$$


USA.gov is the U.S. government's official web portal to all federal, state and local government web resources and services.